Back to catalog

STARLINK-34851

AliveCommunicationsVLEO
NORAD 66447·PAYLOAD·🇺🇸 United States

Launched Nov 11, 2025 from Cape Canaveral Space Force Station

Loading…

Next Passes (next 24 hours)

TLE

FreshSource: CelesTrak SupGP

Epoch: Sep 14, 2026, 21:18 UTC

1 66447C 25259AB  26257.88798611  .00004549  00000+0  16477-3 0  2576
2 66447  43.0001 286.2730 0001491 264.0811  29.9537 15.27572147    19

Track STARLINK-34851 in real time with AllMySat

Download on the App Store